FW7135 Weather Reports


Display with metric or nautical units.
time (UTC)temp
F
wind
direction
speed
MPH
gust
MPH
rain 1hr
in
rain 24hr
in
rain mn
in
humidity
%
barometer
mb
20260507193050 57 7 4.0 11.0 0.00 0.16 0.06 41 1018.2
20260507191540 57 309 3.0 11.0 0.00 0.16 0.06 41 1018.5
20260507190041 57 272 3.0 12.0 0.00 0.16 0.06 37 1018.6
20260507184541 57 335 3.0 9.0 0.00 0.16 0.06 39 1018.8
20260507183040 58 14 1.0 4.0 0.00 0.16 0.06 36 1018.7
20260507181537 56 351 3.0 10.0 0.00 0.16 0.06 37 1018.7
20260507180046 55 309 1.0 9.0 0.01 0.16 0.06 38 1018.8
20260507174548 55 20 3.0 7.0 0.02 0.16 0.06 37 1018.9
20260507173045 56 323 3.0 6.0 0.03 0.16 0.06 36 1019.2
20260507171553 56 59 1.0 5.0 0.04 0.16 0.06 40 1019.4
20260507170037 56 308 0.0 3.0 0.04 0.15 0.05 44 1019.5
20260507164550 56 0 0.0 4.0 0.03 0.14 0.04 42 1019.5
20260507163041 54 7 0.0 5.0 0.02 0.13 0.03 49 1019.6
20260507161545 53 334 2.0 5.0 0.01 0.12 0.02 47 1019.8
20260507160042 52 15 1.0 6.0 0.00 0.11 0.01 49 1019.6
20260507154540 50 298 0.0 4.0 0.00 0.11 0.01 55 1019.5
20260507153039 49 61 0.0 2.0 0.00 0.11 0.01 56 1019.8
20260507151544 48 0 1.0 3.0 0.01 0.11 0.01 62 1019.7
20260507150041 46 0 0.0 6.0 0.01 0.11 0.01 73 1019.7
20260507144540 45 292 0.0 3.0 0.01 0.11 0.01 73 1019.7
20260507143045 44 7 0.0 1.0 0.00 0.10 0.00 74 1019.6
20260507141542 43 151 1.0 3.0 0.00 0.10 0.00 70 1019.7
20260507140037 41 181 1.0 5.0 0.00 0.10 0.00 69 1019.5
20260507134552 41 213 1.0 3.0 0.00 0.10 0.00 64 1019.3
20260507133042 40 216 1.0 2.0 0.00 0.10 0.00 60 1019.2
20260507131541 37 205 1.0 3.0 0.00 0.10 0.00 63 1018.9
20260507130039 35 155 1.0 2.0 0.00 0.10 0.00 65 1018.9
20260507124540 32 207 0.0 2.0 0.00 0.10 0.00 69 1018.8
20260507123038 31 0 0.0 2.0 0.00 0.10 0.00 69 1018.5
20260507121536 30 213 0.0 2.0 0.00 0.10 0.00 69 1018.5
20260507120042 30 0 0.0 1.0 0.00 0.10 0.00 69 1018.5
20260507114541 30 200 0.0 2.0 0.00 0.10 0.00 69 1018.5
20260507113040 29 0 0.0 0.0 0.00 0.10 0.00 68 1018.5
20260507111540 29 0 0.0 0.0 0.00 0.10 0.00 68 1018.6
20260507110048 29 0 0.0 0.0 0.00 0.10 0.00 69 1018.5
20260507104536 29 0 0.0 2.0 0.00 0.10 0.00 70 1018.4
20260507103041 28 0 0.0 0.0 0.00 0.10 0.00 72 1018.5
20260507101543 29 0 0.0 3.0 0.00 0.10 0.00 72 1018.7
20260507100040 29 0 0.0 4.0 0.00 0.10 0.00 73 1018.8
20260507094540 29 223 0.0 3.0 0.00 0.10 0.00 73 1018.7
20260507093036 29 0 0.0 2.0 0.00 0.10 0.00 72 1018.7
20260507091539 29 221 0.0 3.0 0.00 0.10 0.00 75 1018.8
20260507090046 29 207 1.0 3.0 0.00 0.10 0.00 74 1019.1
20260507084542 28 162 1.0 2.0 0.00 0.10 0.00 79 1019.2
20260507083040 27 205 1.0 2.0 0.00 0.10 0.00 80 1019.1
20260507081540 28 0 0.0 4.0 0.00 0.10 0.00 80 1019.1
20260507080037 27 200 1.0 2.0 0.00 0.10 0.00 83 1019.0
20260507074543 27 201 0.0 3.0 0.00 0.10 0.00 85 1019.2
20260507073037 27 226 1.0 2.0 0.00 0.10 0.00 87 1019.4
20260507071544 26 164 0.0 3.0 0.00 0.10 0.00 88 1019.5
20260507070057 26 203 0.0 2.0 0.00 0.10 0.00 90 1019.5
20260507064541 26 230 0.0 2.0 0.00 0.10 0.00 91 1019.3
20260507063040 26 0 0.0 0.0 0.00 0.10 0.00 92 1019.5
20260507061541 26 0 0.0 0.0 0.00 0.10 0.00 93 1019.4
20260507060051 26 0 0.0 0.0 0.00 0.10 0.00 93 1019.2
20260507054538 26 0 0.0 0.0 0.00 0.10 0.10 94 1019.1
20260507053050 26 0 0.0 0.0 0.00 0.10 0.10 94 1019.1
20260507051542 26 0 0.0 3.0 0.00 0.10 0.10 94 1019.1
20260507050043 26 193 1.0 3.0 0.00 0.10 0.10 93 1018.9
20260507044541 26 165 1.0 3.0 0.00 0.10 0.10 93 1018.9
20260507043042 27 0 2.0 7.0 0.00 0.10 0.10 93 1018.9
20260507041540 27 191 3.0 8.0 0.00 0.10 0.10 93 1018.8
20260507040041 27 174 4.0 7.0 0.00 0.10 0.10 92 1019.0
20260507034552 27 211 3.0 6.0 0.00 0.10 0.10 92 1018.9
20260507033042 27 203 3.0 9.0 0.00 0.10 0.10 92 1018.9
20260507031547 28 176 3.0 8.0 0.00 0.10 0.10 91 1018.8
20260507030041 28 203 3.0 7.0 0.00 0.10 0.10 91 1018.5
20260507024552 28 182 3.0 7.0 0.00 0.10 0.10 91 1018.5
20260507023041 28 212 3.0 9.0 0.00 0.10 0.10 90 1018.4
20260507021547 29 219 1.0 6.0 0.00 0.10 0.10 90 1018.4
20260507020052 29 214 4.0 9.0 0.00 0.10 0.10 89 1018.3
20260507014544 30 208 3.0 9.0 0.00 0.10 0.10 88 1018.3
20260507013041 30 215 3.0 9.0 0.00 0.10 0.10 88 1018.2
20260507011545 31 235 3.0 9.0 0.00 0.10 0.10 87 1018.0
20260507010050 31 159 3.0 7.0 0.00 0.10 0.10 86 1018.1
20260507004536 32 193 3.0 7.0 0.01 0.10 0.10 86 1018.0
20260507003041 32 202 3.0 9.0 0.01 0.10 0.10 85 1017.9
20260507001546 33 204 2.0 8.0 0.01 0.10 0.10 84 1017.9
20260507000040 33 238 3.0 8.0 0.02 0.10 0.10 85 1018.0
20260506234541 33 172 3.0 8.0 0.02 0.10 0.09 86 1017.9
20260506233038 32 187 3.0 6.0 0.02 0.10 0.09 87 1018.0
20260506231539 33 198 0.0 4.0 0.03 0.10 0.09 89 1018.1
20260506230045 32 160 1.0 5.0 0.03 0.09 0.08 88 1017.8
20260506224541 33 0 1.0 4.0 0.04 0.10 0.07 90 1017.9
20260506223044 30 0 0.0 3.0 0.06 0.10 0.07 91 1018.0
20260506221545 31 18 2.0 4.0 0.06 0.09 0.06 89 1018.0
20260506220047 31 44 1.0 8.0 0.05 0.08 0.05 90 1018.3
20260506214540 31 339 4.0 7.0 0.03 0.07 0.03 90 1018.2
20260506213044 31 335 4.0 8.0 0.01 0.05 0.01 89 1018.3
20260506211548 30 25 4.0 7.0 0.00 0.04 0.00 90 1018.6
20260506210040 29 338 3.0 9.0 0.00 0.04 0.00 90 1018.5
20260506204540 29 356 4.0 8.0 0.00 0.08 0.00 91 1018.5
20260506203040 29 12 4.0 10.0 0.00 0.08 0.00 92 1018.5
20260506201539 29 348 3.0 9.0 0.00 0.08 0.00 92 1018.4
20260506200043 28 318 2.0 10.0 0.00 0.08 0.00 92 1018.3
20260506194541 27 22 6.0 11.0 0.00 0.10 0.00 91 1018.5